Austin, MN

5:44 PM CST on December 14, 2017 (GMT -0600)
Austin Municipal

Weather History for KAUM - January, 2014

Change the Weather History Date:

Thursday, January 30, 2014

  Actual Average Record
Temperature  
Mean Temperature 13 °F -  
Max Temperature 28 °F 23 °F 42 °F (2012)
Min Temperature -2 °F 11 °F -16 °F (2004)
Degree Days  
Heating Degree Days 52    
Moisture  
Dew Point 11 °F    
Average Humidity 79    
Maximum Humidity 100    
Minimum Humidity 64    
Precipitation  
Precipitation 0.06 in - - ()
Sea Level Pressure  
Sea Level Pressure 29.64 in    
Wind  
Wind Speed 13 mph (West)    
Max Wind Speed 25 mph    
Max Gust Speed 32 mph    
Visibility 8 miles    
Events Snow    
Averages and records for this station are not official NWS values.
T = Trace of Precipitation, MM = Missing Value Source: NWS Daily Summary

Daily Weather History Graph

Daily Weather History Graph

Search for Another Location

Airport or City:

Trip Planner

Search our weather history database for the weather conditions in past years. The results will help you decide how hot, cold, wet, or windy it might be!

Date:

Astronomy

Jan. 30, 2014 Rise Set
Actual Time 7:30 AM CST 5:20 PM CST
Civil Twilight 6:59 AM CST 5:50 PM CST
Nautical Twilight 6:25 AM CST 6:25 PM CST
Astronomical Twilight 5:51 AM CST 6:59 PM CST
Moon 6:55 AM CST (1/30) 5:34 PM CST (1/30)
Length of Visible Light 10h 51m
Length of Day
9h 49m
Waning Crescent, 0% of the Moon is Illuminated
Jan 30
Waning Crescent
Jan 30
New
Feb 6
First Quarter
Feb 14
Full
Feb 22
Last Quarter

Hourly Weather History & Observations

Time (CST) Temp. Windchill Dew Point Humidity Pressure Visibility Wind Dir Wind Speed Gust Speed Precip Events Conditions
12:15 AM 21.2 °F 9.5 °F 12.2 °F 68% 29.58 in 10.0 mi South 11.5 mph - N/A   Clear
12:35 AM 23.0 °F 11.1 °F 14.0 °F 68% 29.57 in 10.0 mi South 12.7 mph - N/A   Clear
12:55 AM 23.0 °F 11.7 °F 14.0 °F 68% 29.56 in 10.0 mi South 11.5 mph - N/A   Clear
1:15 AM 24.8 °F 13.4 °F 14.0 °F 64% 29.55 in 10.0 mi South 12.7 mph 18.4 mph N/A   Clear
1:35 AM 24.8 °F 13.4 °F 14.0 °F 64% 29.55 in 10.0 mi South 12.7 mph 18.4 mph N/A   Scattered Clouds
1:55 AM 24.8 °F 14.6 °F 14.0 °F 64% 29.54 in 10.0 mi South 10.4 mph - N/A   Mostly Cloudy
2:15 AM 24.8 °F 13.4 °F 15.8 °F 69% 29.53 in 10.0 mi South 12.7 mph - N/A   Overcast
2:34 AM 24.8 °F 14.0 °F 15.8 °F 69% 29.53 in 10.0 mi South 11.5 mph - N/A   Overcast
2:55 AM 24.8 °F 15.3 °F 15.8 °F 69% 29.51 in 10.0 mi South 9.2 mph 17.3 mph N/A   Mostly Cloudy
3:15 AM 24.8 °F 14.6 °F 15.8 °F 69% 29.50 in 10.0 mi South 10.4 mph - N/A   Mostly Cloudy
3:34 AM 26.6 °F 16.8 °F 15.8 °F 64% 29.48 in 10.0 mi South 10.4 mph - N/A   Overcast
3:55 AM 26.6 °F 17.5 °F 15.8 °F 64% 29.48 in 10.0 mi South 9.2 mph 17.3 mph N/A   Overcast
4:15 AM 26.6 °F 17.5 °F 15.8 °F 64% 29.47 in 10.0 mi South 9.2 mph - N/A   Overcast
4:35 AM 26.6 °F 18.2 °F 15.8 °F 64% 29.45 in 10.0 mi SSE 8.1 mph - N/A   Overcast
4:55 AM 26.6 °F 18.2 °F 17.6 °F 69% 29.45 in 10.0 mi South 8.1 mph - N/A   Mostly Cloudy
5:14 AM 26.6 °F 16.8 °F 17.6 °F 69% 29.44 in 10.0 mi South 10.4 mph 17.3 mph N/A   Overcast
5:35 AM 26.6 °F 16.8 °F 17.6 °F 69% 29.42 in 10.0 mi SSE 10.4 mph 16.1 mph N/A   Overcast
5:55 AM 28.4 °F 17.5 °F 19.4 °F 69% 29.39 in 7.0 mi SSE 13.8 mph 20.7 mph N/A   Overcast
6:14 AM 28.4 °F 18.0 °F 21.2 °F 74% 29.38 in 10.0 mi South 12.7 mph 19.6 mph N/A   Overcast
6:35 AM 28.4 °F 15.8 °F 19.4 °F 69% 29.42 in 10.0 mi SSW 18.4 mph 24.2 mph N/A   Overcast
6:55 AM 28.4 °F 18.0 °F 19.4 °F 69% 29.43 in 10.0 mi SSW 12.7 mph - N/A   Overcast
7:14 AM 28.4 °F 20.4 °F 19.4 °F 69% 29.44 in 10.0 mi SSW 8.1 mph - N/A   Overcast
7:35 AM 26.6 °F 19.1 °F 19.4 °F 74% 29.45 in 10.0 mi SSW 6.9 mph - N/A   Overcast
7:55 AM 26.6 °F 15.2 °F 21.2 °F 80% 29.46 in 2.0 mi WSW 13.8 mph 24.2 mph N/A Snow Light Snow
8:15 AM 26.6 °F 20.0 °F 24.8 °F 93% 29.46 in 0.5 mi SW 5.8 mph - N/A Snow Snow
8:35 AM 26.6 °F 18.2 °F 24.8 °F 93% 29.45 in 0.2 mi SW 8.1 mph - 0.01 in Snow Heavy Snow
8:54 AM 26.6 °F 15.2 °F 26.6 °F 100% 29.45 in 0.2 mi SW 13.8 mph - 0.01 in Snow Heavy Snow
9:15 AM 26.6 °F 16.8 °F 26.6 °F 100% 29.45 in 1.0 mi SSW 10.4 mph - N/A Snow Light Snow
9:35 AM 26.6 °F 16.8 °F 26.6 °F 100% 29.44 in 1.2 mi SSW 10.4 mph - N/A Snow Light Snow
9:55 AM 26.6 °F 16.8 °F 26.6 °F 100% 29.44 in 1.2 mi SSW 10.4 mph - 0.01 in Snow Light Snow
10:15 AM 26.6 °F 16.8 °F 26.6 °F 100% 29.45 in 1.0 mi SW 10.4 mph - 0.01 in Snow Light Snow
10:35 AM 28.4 °F 19.7 °F 26.6 °F 93% 29.45 in 1.8 mi SW 9.2 mph - 0.02 in Snow Light Snow
10:55 AM 28.4 °F 18.5 °F 26.6 °F 93% 29.46 in 7.0 mi WSW 11.5 mph - 0.03 in Snow Light Snow
11:15 AM 28.4 °F 20.4 °F 26.6 °F 93% 29.46 in 7.0 mi West 8.1 mph - N/A   Overcast
11:35 AM 24.8 °F 10.0 °F 21.2 °F 86% 29.50 in 3.0 mi NNW 21.9 mph 27.6 mph N/A   Overcast
11:55 AM 21.2 °F 5.6 °F 17.6 °F 86% 29.52 in 4.0 mi North 20.7 mph 32.2 mph 0.01 in   Overcast
12:15 PM 19.4 °F 2.5 °F 15.8 °F 86% 29.54 in 5.0 mi NNW 23.0 mph 28.8 mph N/A   Overcast
12:35 PM 19.4 °F 5.5 °F 15.8 °F 86% 29.56 in 7.0 mi NW 15.0 mph 27.6 mph N/A   Overcast
12:55 PM 17.6 °F -0.6 °F 14.0 °F 86% 29.57 in 5.0 mi NW 25.3 mph 31.1 mph N/A   Overcast
1:15 PM 17.6 °F 1.7 °F 12.2 °F 79% 29.59 in 5.0 mi NNW 18.4 mph 29.9 mph N/A   Overcast
1:35 PM 17.6 °F 0.9 °F 12.2 °F 79% 29.61 in 7.0 mi NW 20.7 mph 31.1 mph N/A   Overcast
1:55 PM 17.6 °F 1.7 °F 12.2 °F 79% 29.62 in 7.0 mi NW 18.4 mph 26.5 mph N/A   Scattered Clouds
2:15 PM 17.6 °F -0.3 °F 12.2 °F 79% 29.65 in 7.0 mi NW 24.2 mph - N/A   Scattered Clouds
2:35 PM 15.8 °F -0.6 °F 10.4 °F 79% 29.67 in 7.0 mi NW 18.4 mph 26.5 mph N/A   Overcast
2:55 PM 15.8 °F 0.3 °F 10.4 °F 79% 29.69 in 5.0 mi NW 16.1 mph 28.8 mph N/A Snow Light Snow
3:15 PM 15.8 °F -0.6 °F 10.4 °F 79% 29.71 in 7.0 mi NW 18.4 mph 27.6 mph N/A   Mostly Cloudy
3:35 PM 15.8 °F -1.5 °F 8.6 °F 73% 29.72 in 7.0 mi NW 20.7 mph 26.5 mph N/A   Clear
3:55 PM 15.8 °F 0.9 °F 10.4 °F 79% 29.73 in 10.0 mi WNW 15.0 mph 27.6 mph N/A   Clear
4:15 PM 15.8 °F -1.5 °F 8.6 °F 73% 29.75 in 7.0 mi WNW 20.7 mph 25.3 mph N/A   Clear
4:35 PM 14.0 °F -2.5 °F 6.8 °F 73% 29.76 in 10.0 mi NW 17.3 mph 26.5 mph N/A   Clear
4:55 PM 12.2 °F -5.8 °F 8.6 °F 85% 29.79 in 10.0 mi NW 19.6 mph 27.6 mph N/A   Scattered Clouds
5:15 PM 10.4 °F -8.2 °F 5.0 °F 79% 29.80 in 10.0 mi NW 19.6 mph 24.2 mph N/A   Scattered Clouds
5:35 PM 8.6 °F -10.5 °F 3.2 °F 79% 29.81 in 10.0 mi NW 19.6 mph 26.5 mph N/A   Clear
5:55 PM 6.8 °F -11.3 °F 3.2 °F 85% 29.82 in 10.0 mi NW 16.1 mph 25.3 mph N/A   Scattered Clouds
6:15 PM 6.8 °F -12.9 °F 1.4 °F 79% 29.83 in 10.0 mi NW 19.6 mph 26.5 mph N/A   Clear
6:35 PM 3.2 °F -17.6 °F -0.4 °F 85% 29.85 in 10.0 mi NW 19.6 mph 25.3 mph N/A   Clear
6:55 PM 3.2 °F -15.9 °F -0.4 °F 85% 29.86 in 10.0 mi NW 16.1 mph - N/A   Clear
7:15 PM 1.4 °F -19.4 °F -2.2 °F 85% 29.86 in 10.0 mi NW 18.4 mph 24.2 mph N/A   Clear
7:34 PM 1.4 °F -18.2 °F -2.2 °F 85% 29.88 in - NW 16.1 mph 24.2 mph N/A   Clear
7:55 PM 1.4 °F -18.2 °F -2.2 °F 85% 29.89 in 10.0 mi NW 16.1 mph 25.3 mph N/A   Clear
8:15 PM -0.4 °F -19.9 °F -4.0 °F 85% 29.91 in 10.0 mi WNW 15.0 mph - N/A   Clear
8:35 PM -0.4 °F -17.6 °F -4.0 °F 85% 29.93 in 10.0 mi WNW 11.5 mph 23.0 mph N/A   Clear
8:55 PM -0.4 °F -17.6 °F -5.8 °F 78% 29.95 in 10.0 mi WNW 11.5 mph - N/A   Clear
9:15 PM -0.4 °F -17.6 °F -5.8 °F 78% 29.96 in 10.0 mi NW 11.5 mph 18.4 mph N/A   Clear
9:35 PM -0.4 °F -18.4 °F -5.8 °F 78% 29.97 in 10.0 mi WNW 12.7 mph - N/A   Clear
9:55 PM -0.4 °F -18.4 °F -5.8 °F 78% 29.98 in 10.0 mi NW 12.7 mph 17.3 mph N/A   Clear
10:15 PM -2.2 °F -18.0 °F -7.6 °F 78% 29.99 in 10.0 mi NW 9.2 mph 18.4 mph N/A   Clear
10:35 PM -2.2 °F -19.9 °F -7.6 °F 78% 30.01 in 10.0 mi NW 11.5 mph 18.4 mph N/A   Clear
10:55 PM -2.2 °F -19.9 °F -7.6 °F 78% 30.01 in 10.0 mi NW 11.5 mph 17.3 mph N/A   Clear
11:15 PM -2.2 °F -20.7 °F -7.6 °F 78% 30.01 in 10.0 mi NW 12.7 mph 18.4 mph N/A   Clear
11:35 PM -2.2 °F -22.9 °F -7.6 °F 78% 30.01 in 10.0 mi NW 16.1 mph 21.9 mph N/A   Clear
11:55 PM -2.2 °F -22.2 °F -9.4 °F 71% 30.01 in 10.0 mi NW 15.0 mph 19.6 mph N/A   Clear